Location: Modena
(44.6670°N, 10.9170°E)
Time: 13:35:19
(UTC+02:00)

ISS - Visible Passes

Search period start: 11 May 2021 00:00
Search period end: 21 May 2021 00:00
Orbit: 417 x 422 km, 51.6° (Epoch: 11 May)

Date Brightness Start Highest point End Pass type
(mag) Time Alt. Az. Time Alt. Az. Time Alt. Az.
11 May -1.6 02:04:21 27° N 02:04:21 27° N 02:06:40 10° NE visible
11 May -1.5 03:38:15 10° NW 03:41:09 25° N 03:44:02 10° ENE visible
11 May -3.2 05:15:01 10° NW 05:18:24 64° NNE 05:21:45 10° ESE visible
12 May -1.0 01:18:16 17° NE 01:18:16 17° NE 01:19:15 10° NE visible
12 May -1.4 02:51:12 13° NW 02:53:32 24° N 02:56:23 10° ENE visible
12 May -2.6 04:27:37 10° NW 04:30:54 45° NNE 04:34:10 10° E visible
13 May -1.4 02:05:02 21° NNW 02:05:56 24° N 02:08:45 10° NE visible
13 May -2.0 03:40:14 10° NW 03:43:23 35° NNE 03:46:31 10° E visible
13 May -3.6 05:17:01 10° WNW 05:20:19 53° SW 05:23:37 10° SE visible
14 May -1.5 01:18:39 25° N 01:18:39 25° N 01:21:13 10° NE visible
14 May -1.7 02:52:48 10° NW 02:55:48 29° NNE 02:58:49 10° ENE visible
14 May -3.8 04:29:31 10° WNW 04:32:55 84° SSW 04:36:17 10° ESE visible
14 May -1.8 21:15:56 10° SSE 21:17:19 12° SE 21:18:43 10° ESE visible
14 May -3.9 22:50:17 10° SW 22:53:38 82° SSE 22:55:36 23° ENE visible
15 May -1.7 00:27:43 10° WNW 00:30:44 29° NNW 00:33:44 10° NE visible
15 May -1.5 02:05:19 10° NW 02:08:13 25° N 02:11:07 10° ENE visible
15 May -3.4 03:42:06 10° NW 03:45:28 64° NNE 03:48:49 10° ESE visible
15 May -3.7 22:02:58 10° SW 22:06:15 51° SE 22:09:32 10° ENE visible
15 May -2.1 23:40:01 10° W 23:43:10 35° NNW 23:46:19 10° NE visible
16 May -1.4 01:17:47 10° NW 01:20:36 24° N 01:23:26 10° ENE visible
16 May -2.7 02:54:42 10° NW 02:57:58 45° NNE 03:01:15 10° E visible
16 May -3.1 04:31:39 10° WNW 04:34:43 32° SW 04:37:46 10° SSE visible
16 May -3.0 21:15:53 10° SSW 21:18:54 31° SE 21:21:56 10° ENE visible
16 May -2.7 22:52:23 10° W 22:55:38 46° NNW 22:58:54 10° NE visible
17 May -1.3 00:30:10 10° WNW 00:32:59 24° N 00:35:50 10° NE visible
17 May -2.1 02:07:17 10° NW 02:10:27 35° NNE 02:13:35 10° E visible
17 May -3.7 03:44:04 10° WNW 03:47:22 52° SW 03:50:40 10° SE visible
17 May -3.4 22:04:48 10° WSW 22:08:08 66° NNW 22:11:30 10° NE visible
17 May -1.5 23:42:30 10° WNW 23:45:23 26° N 23:48:17 10° NE visible
18 May -1.7 01:19:52 10° NW 01:22:52 29° NNE 01:22:58 29° NNE visible
18 May -3.8 21:17:20 10° SW 21:20:41 83° SSE 21:24:04 10° ENE visible
18 May -1.7 22:54:47 10° WNW 22:57:47 29° NNW 23:00:48 10° NE visible
19 May -1.5 00:32:23 10° NW 00:35:16 25° N 00:36:33 20° NE visible
19 May -0.9 02:09:09 10° NW 02:09:29 12° NW 02:09:29 12° NW visible
19 May -2.0 22:07:05 10° W 22:10:13 35° NNW 22:13:22 10° NE visible
19 May -1.4 23:44:50 10° NW 23:47:40 24° N 23:50:24 10° ENE visible
20 May -1.6 01:21:45 10° NW 01:23:19 24° NW 01:23:19 24° NW visible
20 May -2.5 21:19:26 10° W 21:22:41 46° NNW 21:25:57 10° NE visible
20 May -1.4 22:57:13 10° WNW 23:00:03 24° N 23:02:52 10° NE visible
